Regional Weather Roundup
Issued by NWS

Home | Current Version | Previous Version | Text Only | Print | Product List | Glossary On
Versions: 1 2 3 4 5 6 7 8 9 10 11 12 13 14 15 16 17 18 19 20 21 22 23 24 25 26 27 28 29 30 31 32 33 34 35 36 37 38 39 40 41 42 43 44 45 46 47 48 49 50
000
ASUS44 KOUN 210310
RWROK

WEATHER ROUNDUP FOR OKLAHOMA
NATIONAL WEATHER SERVICE NORMAN OK
900 PM CST TUE FEB 20 2018

NOTE: "FAIR" INDICATES FEW OR NO CLOUDS BELOW 12,000 FEET WITH NO
      SIGNIFICANT WEATHER AND/OR OBSTRUCTIONS TO VISIBILITY.

OKZ001>007-009>012-014-015-017-210400-
NORTHWEST OKLAHOMA AND THE PANHANDLE

CITY           SKY/WX    TMP DP  RH WIND       PRES   REMARKS
GAGE           CLEAR     24  10  55 NE15      30.22R WCI  11
GUYMON         CLEAR     21   1  41 N9        30.23R WCI  11
ENID/WOODRING  MOCLDY    27  23  86 N13       30.26R WCI  16
$$

OKZ016-021>023-033>039-044-045-210400-
SOUTHWEST OKLAHOMA

CITY           SKY/WX    TMP DP  RH WIND       PRES   REMARKS
LAWTON/REGL    CLOUDY    30  27  88 N17       30.21R WCI  18
LAWTON/FT SILL CLOUDY    29  28  99 N17       30.19R WCI  16
FREDERICK      CLEAR     30  25  81 N17       30.17R WCI  18
CLINTON        CLEAR     26  22  84 N18       30.20R WCI  13
HOBART         CLOUDY    29  23  78 NE20      30.21R WCI  16
ALTUS AFB      CLEAR     30  22  72 N10       30.22R WCI  21
$$

OKZ018>020-024>031-210400-
CENTRAL OKLAHOMA

CITY           SKY/WX    TMP DP  RH WIND       PRES   REMARKS
OKLAHOMA CITY  CLOUDY    26  22  84 N23G30    30.19R WCI  11
OKC/WILEY POST CLOUDY    26  23  88 N18       30.21R WCI  13
OKC/TINKER AFB CLOUDY    26  24  90 N15       30.18R WCI  14
STILLWATER     CLOUDY    26  22  84 N16G23    30.26R WCI  14
GUTHRIE        CLOUDY    26  23  88 N12G20    30.25R WCI  16
$$

OKZ008-013-054>072-210400-
NORTHEAST OKLAHOMA

CITY           SKY/WX    TMP DP  RH WIND       PRES   REMARKS
TULSA          CLOUDY    29  25  85 N16       30.22F WCI  17
TULSA/JONES    CLOUDY    29  24  82 N13G21    30.23F WCI  19
PONCA CITY     CLOUDY    25  18  74 N18       30.29R WCI  11
BARTLESVILLE   CLOUDY    26  22  84 N12G20    30.28R WCI  16
MUSKOGEE       FRZ RAIN  32  30  92 N18G28    30.15F WCI  20
$$

OKZ032-040>043-046>053-073>077-210400-
SOUTH CENTRAL/SOUTHEAST OKLAHOMA

CITY           SKY/WX    TMP DP  RH WIND       PRES   REMARKS
ARDMORE/DWNTWN MIX PCPN  32  32 100 NE8       30.17R WCI  25
MCALESTER      RAIN      33  32  96 N18       30.15R WCI  22
$$




USA.gov is the U.S. government's official web portal to all federal, state and local government web resources and services.